Simultaneous Nadir Overpasses (SNOs) Predictions

Prediction of SNOs between TERRA and METOP-C Satellite Orbit:

Table of predicted SNOs for the next 14.0 days since TLE Epoch: 7/29/2023
Index Date (TERRA) Time (TERRA) Lat,Lon (TERRA) SZA (TERRA ) Date (METOP-C) Time (METOP-C) Lat,Lon (METOP-C) SZA (METOP-C ) Distance(km) Time Diff (sec)
1 07/29/2023 05:34:56 80.70, 126.91 63.09 07/29/2023 05:34:13 80.69, 126.79 63.06 2.24 43
2 07/29/2023 06:24:16 -80.78, -64.51 116.76 07/29/2023 06:24:50 -80.79, -64.33 116.72 3.29 34
3 07/31/2023 21:45:46 80.72,-115.58 63.78 07/31/2023 21:45:48 80.72,-115.74 63.76 2.92 2
4 08/03/2023 13:07:14 -80.70,-166.14 115.58 08/03/2023 13:06:43 -80.71,-166.06 115.58 1.63 31
5 08/03/2023 13:56:34 80.75, 2.07 64.52 08/03/2023 13:57:21 80.76, 2.02 64.54 0.90 47
6 08/06/2023 04:28:42 80.67, 143.11 65.07 08/06/2023 04:27:39 80.68, 143.18 65.06 1.50 63
7 08/06/2023 05:18:02 -80.75, -48.35 114.78 08/06/2023 05:18:17 -80.75, -48.37 114.78 0.58 15
8 08/08/2023 20:39:29 80.73, -98.95 65.93 08/08/2023 20:39:12 80.73, -98.81 65.94 2.56 17
9 08/08/2023 21:28:50 -80.78, 69.25 113.98 08/08/2023 21:29:51 -80.78, 69.27 113.96 0.40 61
10 08/11/2023 12:00:57 -80.69,-149.76 113.37 08/11/2023 12:00:09 -80.69,-149.69 113.38 1.11 48



Historial Predications of SNOs between TERRA and METOP-C
